sat.trackr.live / text

‹ back to catalog

STARLINK-32036

NORAD 60141 · 2024-120G

PAYLOAD ACTIVE UNKNOWN

§ Identity

Operator
Country
US
Launch date
2024-06-27
Launch site
AFETR
Launch vehicle
Mass (kg)
RCS (m²)

Purposes: comms

External: N2YO · Heavens-Above · Gunter

§ Orbital elements

Epoch: 2026-05-24T22:01:11.589600Z

Period
94.11 min
Inclination
53.1597°
Eccentricity
0.0001608
Mean motion
15.30200691 rev/d
Perigee alt
474.1 km
Apogee alt
476.3 km
Semi-major
6,853.4 km
B*
1.5602e-4
RAAN
326.0935°
Arg perigee
90.7482°
Mean anomaly
269.3703°
Rev number
10,812

§ Raw data

STARLINK-320361 60141U 24120G   26144.91749525  .00004264  00000+0  15602-3 0  99922 60141  53.1597 326.0935 0001608  90.7482 269.3703 15.30200691108126

JSON: /api/v1/satellites/60141 · /tle

For live sub-satellite position, see the globe view (requires WebGL).

§ Visibility from observer

Set your observer location to see the next 7 days of passes ≥ 10°. The values pass through the URL so the page stays shareable.

No JS? Fill the form by hand. The geolocation button needs JavaScript.